This demonstration page uses our WeatherBlox Daily Observations layout. Learn more.

Left ArrowRight Arrow

Hourly Observations for February 5, 2018

Temp ( °F °C ) Dew Point ( °F °C ) Humidity (%) Winds ( mph kmh ) Pressure ( in mb ) Visibility ( mi km ) Precip ( " mm )
12:54 am 00:54 Clear 2 -16.7 -4 -20 76 76 S 7 11 30.33 1027 10 16 0.00 0.00
1:54 am 01:54 Clear 2 -16.7 -3 -19.4 80 80 S 8 13 30.28 1026 10 16 0.00 0.00
2:54 am 02:54 Cloudy 6 -14.4 0 -17.8 76 76 SSE 9 15 30.25 1024 10 16 0.00 0.00
3:54 am 03:54 Cloudy 7 -13.9 0 -17.8 73 73 S 12 19 30.19 1022 10 16 0.00 0.00
4:54 am 04:54 Partly Cloudy 9 -12.8 1 -17.2 70 70 S 16 26 30.14 1021 10 16 0.00 0.00
5:54 am 05:54 Clear 9 -12.8 0 -17.8 66 66 S 14 22 30.13 1020 10 16 0.00 0.00
6:54 am 06:54 Mostly Cloudy 9 -12.8 1 -17.2 70 70 S 10 17 30.15 1021 10 16 0.00 0.00
7:54 am 07:54 Cloudy 11 -11.7 2 -16.7 67 67 SSE 13 20 30.15 1021 10 16 0.00 0.00
8:54 am 08:54 Cloudy 12 -11.1 3 -16.1 67 67 SSE 18 30 30.11 1020 10 16 0.00 0.00
9:54 am 09:54 Cloudy 13 -10.6 4 -15.6 67 67 S 26 43 30.04 1017 10 16 0.00 0.00
10:54 am 10:54 Cloudy with Light Snow 13 -10.6 5 -15 70 70 S 17 28 30.06 1018 2 3 0.00 0.03
11:01 am 11:01 Cloudy with Light Snow 14 -10 6 -14.4 71 71 SSW 8 13 30.15 1021 1 2 0.00 0.03
11:13 am 11:13 Mostly Cloudy with Light Snow 14 -10 7 -13.9 73 73 SSW 7 11 30.15 1021 1 1 0.01 0.25
11:28 am 11:28 Mostly Cloudy with Snow 14 -10 9 -12.8 80 80 SSW 5 7 30.18 1022 1 1 0.02 0.51
11:54 am 11:54 Mostly Cloudy with Snow 14 -10 10 -12.2 84 84 VRB 3 6 30.12 1020 1 1 0.04 1.02
12:38 pm 12:38 Cloudy with Light Snow 15 -9.4 10 -12.2 80 80 SSW 9 15 30.15 1021 1 2 0.04 1.02
12:47 pm 12:47 Cloudy with Light Snow 15 -9.4 10 -12.2 80 80 SW 7 11 30.15 1021 3 5 0.04 1.02
12:54 pm 12:54 Cloudy with Haze 15 -9.4 10 -12.2 80 80 SSW 6 9 30.11 1020 6 10 0.04 1.02
1:18 pm 13:18 Cloudy with Light Snow 16 -8.9 10 -12.2 77 77 WSW 6 9 30.15 1021 2 3 0.00 0.03
1:25 pm 13:25 Cloudy with Light Snow 16 -8.9 10 -12.2 77 77 W 6 9 30.15 1021 2 2 0.00 0.03
1:40 pm 13:40 Cloudy with Light Snow 16 -8.9 11 -11.7 80 80 SW 3 6 30.15 1021 2 2 0.00 0.03
1:54 pm 13:54 Cloudy with Light Snow 16 -8.9 11 -11.7 80 80 WSW 6 9 30.11 1020 2 2 0.00 0.03
2:22 pm 14:22 Cloudy with Light Snow 17 -8.3 12 -11.1 80 80 W 6 9 30.18 1022 1 2 0.01 0.25
2:42 pm 14:42 Cloudy with Light Snow 19 -7.2 12 -11.1 74 74 undefined N/A 30.15 1021 3 5 0.01 0.25
2:54 pm 14:54 Cloudy with Light Snow 19 -7.2 12 -11.1 74 74 NW 8 13 30.13 1020 7 11 0.01 0.25
3:17 pm 15:17 Cloudy with Light Snow 19 -7.2 12 -11.1 74 74 NW 9 15 30.21 1023 8 13 0.00 0.03
3:54 pm 15:54 Cloudy 20 -6.7 11 -11.7 68 68 N 13 20 30.17 1022 10 16 0.00 0.03
4:04 pm 16:04 Mostly Cloudy 20 -6.7 10 -12.2 65 65 N 17 28 30.21 1023 10 16 0.00 0.00
4:31 pm 16:31 Mostly Cloudy 19 -7.2 10 -12.2 68 68 N 18 30 30.24 1024 10 16 0.00 0.00
4:54 pm 16:54 Mostly Cloudy 18 -7.8 10 -12.2 71 71 NNW 20 31 30.22 1023 10 16 0.00 0.00
5:54 pm 17:54 Cloudy 18 -7.8 10 -12.2 71 71 N 18 30 30.26 1025 9 14 0.00 0.03
6:36 pm 18:36 Partly Cloudy 15 -9.4 8 -13.3 74 74 N 15 24 30.33 1027 10 16 0.00 0.03
6:47 pm 18:47 Mostly Cloudy 14 -10 7 -13.9 73 73 N 13 20 30.36 1028 10 16 0.00 0.03
6:54 pm 18:54 Mostly Cloudy 14 -10 7 -13.9 73 73 N 13 20 30.30 1026 10 16 0.00 0.03
7:54 pm 19:54 Mostly Cloudy 13 -10.6 7 -13.9 77 77 N 14 22 30.35 1028 10 16 0.00 0.00
8:03 pm 20:03 Partly Cloudy 12 -11.1 6 -14.4 77 77 N 13 20 30.42 1030 10 16 0.00 0.00
8:54 pm 20:54 Clear 10 -12.2 4 -15.6 76 76 NNW 10 17 30.38 1029 10 16 0.00 0.00
9:54 pm 21:54 Clear 9 -12.8 2 -16.7 73 73 NNW 10 17 30.40 1030 10 16 0.00 0.00
10:54 pm 22:54 Clear 8 -13.3 1 -17.2 73 73 N 10 17 30.43 1030 10 16 0.00 0.00
11:54 pm 23:54 Clear 8 -13.3 0 -17.8 69 69 NNW 10 17 30.45 1031 10 16 0.00 0.00

Powered by AerisWeather